| time (UTC) | temp F | wind direction | speed MPH | gust MPH | rain 1hr in | rain 24hr in | rain mn in | humidity % | barometer mb |
| 20260504014548 | 59 | 227 | 0.0 | 1.0 | 0.00 | 0.10 | 0.10 | 67 | 1006.4 |
| 20260504013002 | 60 | 227 | 0.0 | 1.0 | 0.00 | 0.10 | 0.10 | 66 | 1006.3 |
| 20260504011526 | 60 | 224 | 0.0 | 1.0 | 0.00 | 0.10 | 0.10 | 65 | 1006.2 |
| 20260504010021 | 60 | 264 | 0.0 | 1.0 | 0.00 | 0.10 | 0.10 | 65 | 1006.2 |
| 20260504004556 | 62 | 264 | 0.0 | 0.0 | 0.00 | 0.10 | 0.10 | 63 | 1006.2 |
| 20260504003056 | 63 | 264 | 0.0 | 1.0 | 0.00 | 0.10 | 0.10 | 59 | 1006.1 |
| 20260504001524 | 64 | 264 | 0.0 | 1.0 | 0.00 | 0.10 | 0.10 | 57 | 1006.1 |
| 20260504000014 | 65 | 265 | 0.0 | 0.0 | 0.00 | 0.10 | 0.10 | 57 | 1006.3 |
| 20260503234543 | 66 | 264 | 0.0 | 1.0 | 0.00 | 0.10 | 0.10 | 54 | 1006.1 |
| 20260503233059 | 67 | 252 | 0.0 | 1.0 | 0.00 | 0.10 | 0.10 | 53 | 1006.3 |
| 20260503233004 | 67 | 252 | 0.0 | 1.0 | 0.00 | 0.10 | 0.10 | 52 | 1006.3 |
| 20260503231523 | 68 | 252 | 0.0 | 3.0 | 0.00 | 0.10 | 0.10 | 51 | 1006.3 |
| 20260503230057 | 69 | 278 | 0.0 | 4.0 | 0.00 | 0.10 | 0.10 | 50 | 1006.4 |
| 20260503224540 | 70 | 249 | 0.0 | 2.0 | 0.00 | 0.10 | 0.10 | 48 | 1006.5 |
| 20260503223059 | 70 | 248 | 1.0 | 4.0 | 0.00 | 0.10 | 0.10 | 48 | 1006.6 |
| 20260503223006 | 70 | 216 | 1.0 | 4.0 | 0.00 | 0.10 | 0.10 | 47 | 1006.6 |
| 20260503221521 | 70 | 315 | 0.0 | 5.0 | 0.00 | 0.10 | 0.10 | 48 | 1006.7 |
| 20260503220041 | 70 | 273 | 1.0 | 5.0 | 0.00 | 0.10 | 0.10 | 48 | 1006.8 |
| 20260503214528 | 68 | 234 | 1.0 | 5.0 | 0.00 | 0.10 | 0.10 | 51 | 1006.9 |
| 20260503213058 | 68 | 245 | 3.0 | 9.0 | 0.00 | 0.10 | 0.10 | 47 | 1006.9 |
| 20260503211507 | 69 | 229 | 5.0 | 15.0 | 0.00 | 0.10 | 0.10 | 45 | 1007.2 |
| 20260503210002 | 68 | 234 | 2.0 | 7.0 | 0.00 | 0.10 | 0.10 | 49 | 1007.5 |
| 20260503204523 | 67 | 218 | 4.0 | 8.0 | 0.00 | 0.10 | 0.10 | 50 | 1007.9 |
| 20260503203040 | 66 | 257 | 4.0 | 8.0 | 0.00 | 0.10 | 0.10 | 47 | 1008.2 |
| 20260503201506 | 66 | 216 | 3.0 | 6.0 | 0.00 | 0.10 | 0.10 | 50 | 1008.6 |
| 20260503200002 | 66 | 212 | 3.0 | 8.0 | 0.00 | 0.10 | 0.10 | 49 | 1008.9 |
| 20260503194525 | 67 | 246 | 4.0 | 8.0 | 0.00 | 0.10 | 0.10 | 49 | 1009.0 |
| 20260503193045 | 66 | 213 | 4.0 | 14.0 | 0.00 | 0.10 | 0.10 | 49 | 1009.2 |
| 20260503191603 | 65 | 222 | 3.0 | 10.0 | 0.00 | 0.10 | 0.10 | 58 | 1009.4 |
| 20260503190111 | 63 | 191 | 3.0 | 12.0 | 0.00 | 0.10 | 0.10 | 60 | 1009.6 |
| 20260503184559 | 61 | 192 | 2.0 | 10.0 | 0.00 | 0.10 | 0.10 | 64 | 1009.7 |
| 20260503183016 | 60 | 125 | 4.0 | 13.0 | 0.00 | 0.10 | 0.10 | 67 | 1010.0 |
| 20260503181528 | 58 | 216 | 4.0 | 12.0 | 0.00 | 0.10 | 0.10 | 69 | 1010.3 |
| 20260503180049 | 56 | 202 | 4.0 | 10.0 | 0.00 | 0.10 | 0.10 | 71 | 1010.7 |
| 20260503174541 | 55 | 188 | 3.0 | 9.0 | 0.00 | 0.10 | 0.10 | 73 | 1011.2 |
| 20260503173117 | 53 | 354 | 4.0 | 8.0 | 0.01 | 0.10 | 0.10 | 79 | 1011.3 |
| 20260503171518 | 50 | 222 | 2.0 | 9.0 | 0.02 | 0.10 | 0.10 | 86 | 1011.9 |
| 20260503160118 | 48 | 204 | 0.0 | 10.0 | 0.03 | 0.06 | 0.07 | 87 | 1014.2 |
| 20260503150120 | 49 | 241 | 0.0 | 3.0 | 0.03 | 0.03 | 0.03 | 83 | 1014.9 |
| 20260503140109 | 50 | 224 | 0.0 | 2.0 | 0.00 | 0.00 | 0.00 | 74 | 1014.5 |
| 20260503081522 | 41 | 238 | 0.0 | 0.0 | 0.00 | 0.00 | 0.00 | 76 | 1015.8 |
| 20260503071517 | 42 | 238 | 0.0 | 1.0 | 0.00 | 0.00 | 0.00 | 75 | 1016.1 |
| 20260503054524 | 37 | 305 | 0.0 | 0.0 | 0.00 | 0.00 | 0.00 | 80 | 1016.8 |
| 20260503053040 | 38 | 305 | 0.0 | 0.0 | 0.00 | 0.00 | 0.00 | 78 | 1016.9 |
| 20260503051552 | 39 | 305 | 0.0 | 0.0 | 0.00 | 0.00 | 0.00 | 78 | 1017.0 |
| 20260503050118 | 39 | 305 | 0.0 | 0.0 | 0.00 | 0.00 | 0.00 | 77 | 1017.1 |
| 20260503044512 | 40 | 306 | 0.0 | 0.0 | 0.00 | 0.00 | 0.00 | 76 | 1017.1 |
| 20260503043028 | 40 | 305 | 0.0 | 0.0 | 0.00 | 0.00 | 0.00 | 75 | 1017.1 |
| 20260503041605 | 40 | 305 | 0.0 | 0.0 | 0.00 | 0.00 | 0.00 | 74 | 1017.2 |
| 20260503040114 | 41 | 305 | 0.0 | 0.0 | 0.00 | 0.00 | 0.00 | 72 | 1017.3 |
| 20260503034532 | 42 | 306 | 0.0 | 0.0 | 0.00 | 0.00 | 0.00 | 72 | 1017.4 |
| 20260503033040 | 42 | 305 | 0.0 | 0.0 | 0.00 | 0.00 | 0.00 | 72 | 1017.4 |
| 20260503031600 | 42 | 306 | 0.0 | 0.0 | 0.00 | 0.00 | 0.00 | 70 | 1017.5 |
| 20260503031502 | 42 | 305 | 0.0 | 0.0 | 0.00 | 0.00 | 0.00 | 70 | 1017.5 |
| 20260503030119 | 43 | 305 | 0.0 | 0.0 | 0.00 | 0.00 | 0.00 | 70 | 1017.5 |
| 20260503024529 | 43 | 306 | 0.0 | 0.0 | 0.00 | 0.00 | 0.00 | 68 | 1017.6 |
| 20260503023052 | 44 | 305 | 0.0 | 0.0 | 0.00 | 0.00 | 0.00 | 68 | 1017.5 |
| 20260503021517 | 46 | 305 | 0.0 | 0.0 | 0.00 | 0.00 | 0.00 | 64 | 1017.5 |
| 20260503020018 | 46 | 305 | 0.0 | 0.0 | 0.00 | 0.00 | 0.00 | 63 | 1017.4 |